TimeEST,TemperatureF,Dew PointF,Humidity,Sea Level PressureIn,VisibilityMPH,Wind Direction,Wind SpeedMPH,Gust SpeedMPH,PrecipitationIn,Events,Conditions,WindDirDegrees,DateUTC
12:15 AM,59.0,50.0,72,30.23,10.0,NNE,6.9,-,N/A,,Clear,30,2013-11-25 05:15:00
12:35 AM,59.0,50.0,72,30.23,10.0,NE,6.9,-,N/A,,Clear,40,2013-11-25 05:35:00
12:55 AM,59.0,51.8,77,30.23,10.0,NNE,6.9,-,N/A,,Clear,30,2013-11-25 05:55:00
1:15 AM,57.2,51.8,82,30.22,10.0,NNE,6.9,-,N/A,,Clear,30,2013-11-25 06:15:00
1:35 AM,59.0,51.8,77,30.21,10.0,NE,5.8,-,N/A,,Clear,40,2013-11-25 06:35:00
1:55 AM,59.0,51.8,77,30.22,10.0,NE,9.2,-,N/A,,Clear,50,2013-11-25 06:55:00
2:15 AM,60.8,51.8,72,30.22,10.0,NE,8.1,-,N/A,,Clear,50,2013-11-25 07:15:00
2:35 AM,60.8,51.8,72,30.21,10.0,NE,8.1,-,N/A,,Clear,50,2013-11-25 07:35:00
2:55 AM,60.8,51.8,72,30.21,10.0,ENE,8.1,-,N/A,,Clear,60,2013-11-25 07:55:00
3:15 AM,62.6,51.8,68,30.21,10.0,ENE,12.7,-,N/A,,Clear,60,2013-11-25 08:15:00
3:35 AM,62.6,51.8,68,30.21,10.0,ENE,12.7,-,N/A,,Clear,70,2013-11-25 08:35:00
3:55 AM,62.6,50.0,63,30.21,10.0,ENE,11.5,16.1,N/A,,Scattered Clouds,70,2013-11-25 08:55:00
4:15 AM,62.6,50.0,63,30.20,10.0,ENE,10.4,-,N/A,,Overcast,70,2013-11-25 09:15:00
4:35 AM,62.6,50.0,63,30.19,10.0,ENE,11.5,-,N/A,,Mostly Cloudy,70,2013-11-25 09:35:00
4:55 AM,62.6,50.0,63,30.19,10.0,ENE,10.4,16.1,N/A,,Scattered Clouds,70,2013-11-25 09:55:00
5:15 AM,62.6,51.8,68,30.18,10.0,ENE,13.8,19.6,N/A,,Mostly Cloudy,70,2013-11-25 10:15:00
5:35 AM,62.6,51.8,68,30.19,10.0,ENE,13.8,18.4,N/A,,Scattered Clouds,70,2013-11-25 10:35:00
5:56 AM,64.4,53.6,68,30.19,12.0,ENE,11.5,17.3,N/A,,Mostly Cloudy,60,2013-11-25 10:56:00
6:52 AM,64.4,53.6,68,30.21,12.0,ENE,13.8,-,N/A,,Mostly Cloudy,70,2013-11-25 11:52:00
7:52 AM,66.2,53.6,64,30.22,15.0,ENE,11.5,-,N/A,,Overcast,70,2013-11-25 12:52:00
8:08 AM,66.2,53.6,64,30.23,15.0,ENE,11.5,-,N/A,,Overcast,70,2013-11-25 13:08:00
8:50 AM,66.2,53.6,64,30.24,15.0,ENE,9.2,-,N/A,,Overcast,70,2013-11-25 13:50:00
9:54 AM,-9999,-9999,N/A,30.25,15.0,East,13.8,-,N/A,,Overcast,80,2013-11-25 14:54:00
10:50 AM,71.6,55.4,57,30.25,20.0,East,15.0,21.9,N/A,,Overcast,90,2013-11-25 15:50:00
11:58 AM,73.4,55.4,53,30.22,20.0,East,16.1,24.2,N/A,,Overcast,80,2013-11-25 16:58:00
12:50 PM,73.4,55.4,53,30.20,15.0,ESE,17.3,24.2,N/A,,Overcast,110,2013-11-25 17:50:00
1:50 PM,73.4,55.4,53,30.16,15.0,East,16.1,23.0,N/A,,Overcast,90,2013-11-25 18:50:00
2:50 PM,75.2,53.6,47,30.15,15.0,East,19.6,25.3,N/A,,Overcast,100,2013-11-25 19:50:00
3:50 PM,71.6,55.4,57,30.17,15.0,ENE,12.7,20.7,N/A,,Mostly Cloudy,70,2013-11-25 20:50:00
4:50 PM,69.8,57.2,64,30.15,15.0,ENE,12.7,19.6,N/A,,Mostly Cloudy,70,2013-11-25 21:50:00
5:52 PM,69.8,55.4,60,30.15,15.0,East,9.2,-,N/A,,Mostly Cloudy,90,2013-11-25 22:52:00
6:50 PM,68.0,55.4,64,30.16,15.0,East,4.6,-,N/A,,Mostly Cloudy,90,2013-11-25 23:50:00
7:50 PM,68.0,57.2,68,30.17,12.0,East,9.2,-,N/A,,Mostly Cloudy,80,2013-11-26 00:50:00
8:45 PM,66.2,57.2,73,30.15,10.0,East,10.4,16.1,N/A,,Mostly Cloudy,100,2013-11-26 01:45:00
9:45 PM,66.2,59.0,78,30.14,10.0,East,8.1,-,N/A,,Mostly Cloudy,90,2013-11-26 02:45:00
9:55 PM,66.2,59.0,78,30.13,10.0,East,8.1,-,N/A,,Clear,90,2013-11-26 02:55:00
10:15 PM,66.2,59.0,78,30.12,10.0,East,8.1,-,N/A,,Clear,90,2013-11-26 03:15:00
10:35 PM,66.2,59.0,78,30.12,10.0,East,9.2,-,N/A,,Clear,100,2013-11-26 03:35:00
10:55 PM,66.2,59.0,78,30.10,10.0,East,9.2,-,N/A,,Scattered Clouds,100,2013-11-26 03:55:00
11:15 PM,66.2,59.0,78,30.10,10.0,East,9.2,-,N/A,,Mostly Cloudy,90,2013-11-26 04:15:00
11:35 PM,66.2,60.8,83,30.10,10.0,East,8.1,-,N/A,,Scattered Clouds,100,2013-11-26 04:35:00
11:55 PM,66.2,60.8,83,30.08,10.0,East,9.2,-,N/A,,Clear,90,2013-11-26 04:55:00